PORCUPINE 2

导读

PORCUPINE 2是美国于1965年8月13日08:00发射的一颗人造卫星,是冷战时期美国太空探索进程中的早期航天器代表。作为美国早期航天活动的产物,该卫星的发射体现了美国在航天时代初期对太空技术探索的积极尝试,见证了人类进入太空探索时代初期的发展足迹,也为后续美国航天技术积累与应用拓展奠定了早期实践基础。

基本信息
目录编号:
1577
目录名称:
PORCUPINE 2
国际标识:
1965-065J
轨道中心:
EARTH
卫星名称:
PORCUPINE 2
卫星全名:
--
卫星状态:
在轨 (已飞行22227 天)
发射日期:
1965-08-13 UTC
国别 :
美国 (US)
星等 :
--
轨道信息
数据来源 国际轨道数据 AOE轨道数据
星历时间 2026-06-20T17:31:33+0800
1天前
查看轨道信息
2026-06-15T01:00:00+0800
6天前
查看轨道信息
半长轴 7501.396km 7501.394km
偏心率 0.0072154 0.0072074
轨道倾角 90.030° 90.029°
近地点辐角 94.702° 110.249°
升交点赤经 212.108° 212.090°
平近点角 327.800° 323.283°
近地点 1069.133km 1069.191km
远地点 1177.385km 1177.323km
周期 107.764分钟 107.764分钟
每日圈数 13.362561 13.362566
详细信息
使用方式:
暂无
2D轨道图
3D轨道图
轨道高度分析图
轨道倾角分析图
轨道综合分析图
查看轨道综合分析图